STARLINK-3252, 49733

Orbit data source: Space-Track

STARLINK-3252, 49733 is a payload satellite owned by SpaceX/Seattle (US) in LEO that was launched on Thu, 02 Dec 2021 UTC via an FALCON 9 launch vehicle from the Air Force Eastern Test Range (AFETR). Payload-class satellites include a variety of spacecraft equipped with specific instruments for various scientific and technological missions. These include communications satellites like Starlink; space stations such as the ISS; scientific satellites like the Hubble; Earth observation satellites from companies like Planet Labs, Umbra, and HawkEye 360; GPS; miniature CubeSats for education and research; and military/defense satellites.

Loading next visibility...
Identifier
49733, 2021-115K
Orbit
LEO
Country
Flag of USUS
Related business
Manufacturer
SpaceX/Seattle
Mission
Operational Commercial Communications
Bus & Motor
STARLINK, Unknown motor
Mass
290 kg wet, ~270 kg dry
Launch date (UTC)
2021-12-02 (5 years ago)
Launch vehicle
FALCON 9
Launch site
Air Force Eastern Test Range (AFETR)
Object type
Payload
Rocket body
Debris
Shape & HBR
Box + 1 Pan, 10.1 m
Radar Cross Section
13.562 m², Large (>1 m²)

Expand to show TLE details & history
Last TLE update: 2 days ago

TLE from 2 days ago
0 STARLINK-3252
1 49733U 21115K   26171.38679647  .00000305  00000-0  37293-4 0  9999
2 49733  53.1607  57.9799 0001354  80.5960 279.5184 15.08833413250893
Epoch: 2026-06-20T09:16Z
TLE epoch observation values (Epoch: 2026-06-20T09:16:59.215Z)
Latitude
-0.00009°
Longitude
10.13095°
Altitude
540.5 km
Speed
7.593 km/s
True Right ascension
03h 51m 55s
True Declination
0° 00' 00"
Sunlit
Object was in daylight at epoch
Visualization orbit readout
Latitude
Unknown
Longitude
Unknown
Altitude
Unknown
Speed
Unknown
Apparent Right ascension
Unknown
Apparent Declination
Unknown
Sunlit
N/A
Visualization observer readout
Local Sidereal Time
00:39:30
Azimuth
Unknown
Elevation
Unknown
Doppler factor
Unknown
Orbital elements
Apogee altitude
540.954 km
Perigee altitude
539.081 km
Semi-major axis
6,918.155 km
Eccentricity
0.00014
Inclination
53.1607°
RAAN
57.9799°
Arg. of periapsis
80.596°
True anomaly
279.5031°
Mean anomaly
279.5184°
Eccentric anomaly
279.51075°
Mean motion
3.77188 °/min
Orbital period
95.44 mins
BSTAR
0.000037293
Loading maneuver chart data...
Computing Atmospheric mass density...
Loading historical data...
Loading historical data...
Loading historical data...
Loading historical data...
Loading historical data...
Loading historical data...
Loading historical data...

Documentation

Showing up to 5 results
|